#timestamp,LO_Frequency,Hit,StdDev 
1523898015.6,286046999.4,N
1523898035.5,286046999.4,N
1523898055.3,286047001.1,N
1523898075.1,286047001.1,N
1523898095.9,286046998.4,N
1523898115.7,286047000.9,N
1523898135.5,286047000.4,N
1523898155.4,286047000.8,N
1523898175.2,286046998.3,N
1523898195.1,286046996.6,N
1523898196.0,286046996.6,N
1523898215.8,286046996.6,N
1523898235.6,286046999.2,N
1523898255.5,286046998.6,N
1523898275.3,286047000.2,N
1523898295.1,286047000.9,N
1523898315.9,286047000.3,N
1523898335.7,286047000.0,N
1523898355.6,286047000.1,N
1523898375.4,286046999.9,N
1523898395.2,286047000.3,N
1523898415.1,286046998.3,N
1523898416.0,286046998.3,N
1523898435.8,286046998.2,N
1523898455.7,286047000.4,N
1523898475.5,286046999.9,N
1523898495.3,286047000.1,N
1523898515.2,286047002.7,N
1523898535.0,286047001.8,N
1523898535.9,286047001.8,N
1523898555.7,286047002.0,N
1523898575.6,286047000.5,N
1523898595.4,286046999.7,N
1523898615.3,286047000.4,N
1523898635.1,286046998.6,N
1523898636.0,286046998.6,N
1523898655.8,286047000.3,N
1523898675.7,286046999.9,N
1523898695.5,286047000.4,N
1523898715.3,286047000.2,N
1523898735.2,286047002.4,N
1523898755.0,286046999.9,N
1523898755.9,286046999.9,N
1523898775.8,286046999.8,N
1523898795.6,286046999.7,N
1523898815.4,286047000.1,N
1523898835.3,286047002.3,N
1523898855.1,286046999.8,N
1523898875.9,286047000.3,N
1523898895.7,286047001.0,N
1523898915.5,286047001.0,N
1523898935.4,286047001.2,N
1523898955.2,286047001.2,N
1523898975.0,286046998.5,N
1523898975.9,286046998.5,N
1523898995.8,286047000.4,N
1523899015.6,286047000.1,N
1523899035.5,286046998.5,N
1523899055.3,286047000.9,N
1523899075.1,286047000.6,N
1523899095.9,286046999.8,N
1523899115.7,286047002.7,N
1523899135.5,286046999.8,N
1523899155.4,286047000.8,N
1523899175.2,286047000.9,N
1523899195.1,286047000.3,N
1523899196.0,286047000.3,N
1523899215.8,286047002.0,N
1523899235.6,286047002.9,N
1523899255.5,286047003.1,N
1523899275.3,286047003.1,N
1523899295.2,286047004.2,Y
1523899315.9,286047004.2,P
1523899335.7,286047001.8,N
1523899355.6,286047002.2,N
1523899375.4,286046999.7,N
1523899395.2,286047001.8,N
1523899415.1,286047002.1,N
1523899416.0,286047002.1,N
1523899435.8,286047001.6,N
1523899455.7,286046998.2,N
1523899475.5,286046999.9,N
1523899495.3,286047001.3,N
1523899515.2,286047000.2,N
1523899535.9,286047002.7,N
1523899555.7,286047002.5,N
1523899575.6,286047000.2,N
1523899595.4,286047002.3,N
1523899615.3,286047002.0,N
1523899635.1,286047001.7,N
1523899636.0,286047001.7,N
1523899655.8,286047003.8,N
1523899675.7,286047003.2,N
1523899695.5,286047003.6,N
1523899715.3,286047002.1,N
1523899735.2,286047001.8,N
1523899755.0,286047002.4,N
1523899755.9,286047002.4,N
1523899775.8,286047001.9,N
1523899795.6,286047004.2,Y
1523899815.4,286047000.8,P
1523899835.3,286047000.4,N
1523899855.1,286047002.4,P
1523899875.9,286047004.3,Y
1523899895.7,286047002.3,P
1523899915.5,286047000.0,N
1523899935.4,286047002.6,N
1523899955.2,286047001.0,N
1523899975.0,286046998.4,N
1523899975.9,286046998.4,N
1523899995.8,286046998.9,N
1523900015.6,286046996.6,N
1523900035.5,286046996.6,N
1523900055.3,286046996.7,N
1523900075.1,286046997.3,N
1523900095.9,286046996.6,N
1523900115.7,286046997.4,N
1523900135.5,286046999.2,N
1523900155.4,286046996.9,N
1523900175.2,286046999.1,N
1523900195.1,286046997.7,N
1523900196.0,286046997.7,N
1523900215.8,286046997.0,N
1523900235.6,286046996.9,N
1523900255.5,286046997.0,N
1523900275.3,286046996.9,N
1523900295.2,286046998.6,N
1523900315.9,286046996.8,N
1523900335.7,286046999.0,N
1523900355.6,286046999.0,N
1523900375.4,286046999.2,N
1523900395.2,286046998.9,N
1523900415.1,286046997.8,N
1523900416.0,286046997.8,N
1523900435.8,286046995.1,Y
1523900455.7,286046999.5,P
1523900475.5,286046998.4,N
1523900495.3,286047000.5,N
1523900515.2,286047001.1,N
1523900535.0,286047000.0,N
1523900535.9,286047000.0,N
1523900555.8,286047001.2,N
1523900575.6,286046998.6,N
1523900595.4,286047000.7,N
1523900615.3,286046998.3,N
1523900635.1,286046998.2,N
1523900655.8,286047001.0,N
1523900675.7,286046999.7,N
1523900695.5,286046999.9,N
1523900715.3,286047000.7,N
1523900735.2,286047000.3,N
1523900755.0,286047002.7,N
1523900755.9,286047002.7,N
1523900775.8,286047001.2,N
1523900795.6,286046998.1,N
1523900815.4,286047001.1,N
1523900835.3,286047000.6,N
1523900855.1,286047000.9,N
1523900875.9,286046998.5,N
1523900895.7,286046998.1,N
1523900915.5,286046999.2,N
1523900935.4,286046998.9,N
1523900955.2,286046998.8,N
1523900975.0,286046998.6,N
1523900975.9,286046998.6,N
1523900995.8,286046998.2,N
1523901015.6,286046999.9,N
1523901035.5,286047002.1,N
1523901055.3,286047001.6,N
1523901075.1,286047002.0,N
1523901095.9,286047002.3,N
1523901115.7,286047001.3,N
1523901135.5,286047003.3,N
1523901155.4,286047003.3,N
1523901175.2,286047006.0,Y
1523901195.1,286047003.1,P
1523901196.0,286047003.1,N
1523901215.8,286047004.4,P
1523901235.6,286047000.3,N
1523901255.5,286046998.2,N
1523901275.3,286046999.4,N
1523901295.1,286046998.8,N
1523901315.9,286047000.9,N
1523901335.7,286046998.9,N
1523901355.6,286046999.4,N
1523901375.4,286046998.7,N
1523901395.2,286046998.6,N
1523901415.1,286047000.2,N
1523901416.0,286047000.2,N
1523901435.8,286047002.8,N
1523901455.7,286047001.6,N
1523901475.5,286047002.0,N
1523901495.3,286047000.4,N
1523901515.2,286047002.4,N
1523901535.9,286047000.2,N
1523901555.7,286047002.3,N
1523901575.6,286047001.3,N
1523901595.4,286047002.6,N
